Location: *
(2.5500°S, 65.9667°W)
Time: 03:00:13
(UTC+00:00)

A-11 Canister half - Visible Passes

Search period start: 22 April 2024 00:00
Search period end: 02 May 2024 00:00
Orbit: 1513 x 1686 km, 47.2° (Epoch: 21 April)

Date Brightness Start Highest point End Pass type
(mag) Time Alt. Az. Time Alt. Az. Time Alt. Az.
22 Apr 10.3 01:24:40 10° WNW 01:33:03 29° SW 01:33:39 29° SW visible
22 Apr 9.3 22:55:13 10° NNW 23:05:00 59° NE 23:14:26 12° SE visible
23 Apr 10.2 01:01:20 10° WNW 01:10:00 32° SW 01:12:41 28° SSW visible
23 Apr 10.5 09:42:07 10° S 09:50:05 30° SE 09:57:51 10° ENE visible
23 Apr 9.4 22:32:20 10° NNW 22:41:59 54° NE 22:51:49 10° SE visible
24 Apr 10.2 00:38:04 10° WNW 00:46:57 35° SW 00:51:42 24° S visible
24 Apr 10.6 09:19:21 10° S 09:27:04 28° SE 09:34:34 10° ENE visible
25 Apr 10.1 00:14:49 10° WNW 00:23:54 38° SW 00:30:41 18° S visible
25 Apr 10.6 08:56:37 10° S 09:04:02 25° SE 09:11:15 10° E visible
25 Apr 10.1 23:51:36 10° WNW 00:00:52 42° SW 00:09:38 12° SSE visible
26 Apr 10.7 08:33:56 10° S 08:41:01 23° SE 08:47:54 10° E visible
26 Apr 10.0 23:28:24 10° WNW 23:37:49 45° SW 23:47:25 10° SSE visible
27 Apr 10.7 08:11:15 10° S 08:17:58 21° SE 08:24:29 10° E visible
27 Apr 9.9 23:05:15 10° WNW 23:14:47 49° SW 23:24:32 10° SSE visible
28 Apr 10.8 07:49:29 12° S 07:54:54 19° SE 08:01:01 10° E visible
28 Apr 9.0 09:50:32 10° SW 10:00:04 86° NW 10:09:19 10° NE visible
28 Apr 9.9 22:42:08 10° NW 22:51:46 54° SW 23:01:38 10° SSE visible
29 Apr 10.8 07:28:30 14° SSE 07:31:50 17° SE 07:37:28 10° E visible
29 Apr 9.0 09:27:32 10° SW 09:37:07 88° SE 09:46:22 10° NE visible
30 Apr 11.3 00:33:33 10° SW 00:34:47 10° SW 00:36:03 10° SSW visible
30 Apr 10.8 07:07:31 15° SE 07:08:45 15° SE 07:13:50 10° ESE visible
30 Apr 9.0 09:05:46 15° SW 09:14:08 81° SE 09:23:25 10° NE visible
01 May 11.2 00:08:29 10° WSW 00:11:38 12° SW 00:14:48 10° SSW visible
01 May 11.0 06:46:31 14° SE 06:46:31 14° SE 06:50:05 10° ESE visible
01 May 9.1 08:44:46 24° SSW 08:51:11 75° SE 09:00:25 10° NE visible
01 May 11.1 23:44:16 10° WSW 23:48:30 13° SW 23:52:45 10° SSW visible
